Location: San Antonio
(29.4240°N, 98.4930°W)
Time: 12:26:22
(UTC-05:00)

A-11 Canister half - Pass Details

Date: 21 July 2024
Orbit: 1524 x 1684 km, 47.3° (Epoch: 18 May)

Event Time Altitude Azimuth Distance (km) Brightness Sun altitude
Rises 08:11:31 0° 277° (W) 4,903 11.1 16.3°
Reaches altitude 10° 08:15:19 10° 288° (WNW) 3,898 10.7 17.1°
Maximum altitude 08:23:43 30° 346° (NNW) 2,613 10.4 18.9°
Drops below altitude 10° 08:31:54 10° 45° (NE) 3,793 12.2 20.6°
Sets 08:35:34 0° 56° (NE) 4,754 12.8 21.4°
